This is the latest recevied weather packets stored in our database for station/object KC3ELT-10. If no packets are shown the sender has not sent any weather packets the latest 1 day(s).
| Time | Temp. | Humidity | Pressure | Rain* | Wind** | Luminosity | Snow |
|---|---|---|---|---|---|---|---|
| 1778086979 | 13.89° C | 90% | 1001.8 hPa | 0 mm | 3.13 m/s, 275° | - | - |
| 1778086679 | 13.89° C | 90% | 1001.9 hPa | 0 mm | 1.34 m/s, 202° | - | - |
| 1778086379 | 14.44° C | 90% | 1001.9 hPa | 0 mm | 2.24 m/s, 207° | - | - |
| 1778086079 | 14.44° C | 90% | 1001.9 hPa | 0 mm | 2.24 m/s, 113° | - | - |
| 1778085779 | 14.44° C | 90% | 1001.4 hPa | 0 mm | 1.79 m/s, 252° | - | - |
| 1778085479 | 13.89° C | 90% | 1001.4 hPa | 0 mm | 1.34 m/s, 193° | - | - |
| 1778085179 | 13.89° C | 90% | 1001.4 hPa | 0 mm | 2.24 m/s, 184° | - | - |
| 1778084879 | 13.89° C | 89% | 1001.5 hPa | 0 mm | 0.45 m/s, 201° | - | - |
| 1778084579 | 13.89° C | 89% | 1001.5 hPa | 0 mm | 4.47 m/s, 117° | - | - |
| 1778084279 | 14.44° C | 89% | 1001.5 hPa | 0 mm | 1.34 m/s, 162° | - | - |
| 1778083979 | 14.44° C | 89% | 1002.3 hPa | 0 mm | 1.79 m/s, 156° | - | - |
| 1778083679 | 14.44° C | 89% | 1002.3 hPa | 0 mm | 2.68 m/s, 158° | - | - |
| 1778083379 | 14.44° C | 89% | 1002.3 hPa | 0 mm | 2.68 m/s, 144° | - | - |
| 1778083079 | 14.44° C | 89% | 1002.6 hPa | 0 mm | 0.89 m/s, 167° | - | - |
| 1778082779 | 14.44° C | 89% | 1002.6 hPa | 0 mm | 0.45 m/s, 176° | - | - |
| 1778082479 | 14.44° C | 88% | 1002.6 hPa | 0 mm | 2.24 m/s, 184° | - | - |
| 1778082179 | 14.44° C | 88% | 1002.9 hPa | 0 mm | 2.24 m/s, 176° | - | - |
| 1778081879 | 14.44° C | 88% | 1002.9 hPa | 0 mm | 2.68 m/s, 255° | - | - |
| 1778081579 | 14.44° C | 88% | 1002.9 hPa | 0 mm | 1.79 m/s, 209° | - | - |
| 1778081279 | 14.44° C | 88% | 1003 hPa | 0 mm | 1.34 m/s, 158° | - | - |
| 1778080979 | 14.44° C | 87% | 1003 hPa | 0 mm | 1.34 m/s, 166° | - | - |
| 1778080379 | 14.44° C | 87% | 1002.6 hPa | 0 mm | 3.13 m/s, 193° | - | - |
| 1778079779 | 15° C | 87% | 1002.6 hPa | 0 mm | 1.34 m/s, 184° | - | - |
| 1778079479 | 15° C | 86% | 1002.6 hPa | 0 mm | 1.34 m/s, 166° | - | - |
| 1778079179 | 15° C | 86% | 1002.6 hPa | 0 mm | 0.89 m/s, 181° | - | - |
* Rain latest hour (hover to see other rain measurements)
** Current wind speed in m/s (hover to see current wind gust speed)